Regional Weather Roundup
Issued by NWS

Home | Current Version | Previous Version | Text Only | Print | Product List | Glossary On
Versions: 1 2 3 4 5 6 7 8 9 10 11 12 13 14 15 16 17 18 19 20 21 22 23 24 25 26 27 28 29 30 31 32 33 34 35 36 37 38 39 40 41 42 43 44 45 46 47 48 49 50
000
ASUS46 KSEW 260510
RWRWA

WASHINGTON REGIONAL WEATHER ROUNDUP
NATIONAL WEATHER SERVICE SEATTLE WA
1000 PM PDT FRI JUL 25 2014

NOTE:"FAIR" INDICATES FEW OR NO CLOUDS BELOW 12,000 FEET WITH NO
SIGNIFICANT WEATHER AND/OR OBSTRUCTIONS TO VISIBILITY.

WAZ505-507>509-260600-
SEATTLE, TACOMA, EVERETT, AND VICINITY

CITY           SKY/WX    TMP DP  RH WIND       PRES   REMARKS
EVERETT        CLEAR     56  51  84 N5        30.12S
BOEING FIELD   CLEAR     66  50  56 CALM      30.10R
RENTON         CLEAR     66  55  67 NW9       30.09R
SEATAC AIRPORT CLEAR     62  51  67 N7        30.11R
JBLM-MCCHORD   CLEAR     65  52  64 NE3       30.10R
PUYALLUP       FAIR      59  55  88 CALM      30.11R
JBLM-FT LEWIS  CLEAR     65  52  62 VRB2      30.10R
TACOMA NARROWS CLEAR     63  49  60 N10       30.10R
$$

WAZ001-503-506-510-514-515-260600-
NORTH INTERIOR

CITY           SKY/WX    TMP DP  RH WIND       PRES   REMARKS
BELLINGHAM     CLEAR     59  54  83 S3        30.09R
FRIDAY HARBOR  CLEAR     58  50  75 W5        30.11R
EASTSOUND      CLEAR     63  50  63 S6        30.08R
PORT ANGELES   CLEAR     58  49  72 W9        30.12S
NAS WHIDBEY    PTCLDY    56  50  80 SW5       30.12R
BURLINGTON     CLEAR     55  54  94 CALM      30.12R
$$

WAZ020-022-039-040-504-511-512-260600-
SOUTHWEST INTERIOR

CITY           SKY/WX    TMP DP  RH WIND       PRES   REMARKS
SHELTON        CLEAR     61  53  75 W6        30.09R
OLYMPIA        CLEAR     62  53  72 CALM      30.10R
CHEHALIS       FAIR      64  55  72 CALM      30.10R
KELSO          CLEAR     64  52  63 CALM      30.13R
VANCOUVER      CLEAR     69  54  58 N3        30.07R
SCAPPOOSE, OR  CLEAR     66  54  65 VRB3      30.07R
PORTLAND, OR   CLEAR     69  56  62 NW8       30.07R
$$

WAZ021-516-517-260600-
WASHINGTON COAST

CITY           SKY/WX    TMP DP  RH WIND       PRES   REMARKS
FORKS          CLEAR     56  52  86 N5        30.13R
HOQUIAM        CLEAR     59  53  80 W6        30.12R
ASTORIA, OR    CLEAR     60  54  80 NW10      30.12R
$$

WAZ019-023-024-040-518-519-260600-
CASCADE MOUNTAINS AND COLUMBIA GORGE

CITY           SKY/WX    TMP DP  RH WIND       PRES   REMARKS
STAMPEDE PASS  NOT AVBL
TROUTDALE, OR  CLEAR     70  56  61 VRB5      30.05R
THE DALLES, OR CLEAR     71  53  52 N9        30.00R
$$

WAZ026-027-041>044-520-521-260600-
EAST SLOPES

CITY           SKY/WX    TMP DP  RH WIND       PRES   REMARKS
OMAK           CLEAR     69  44  40 NW8       30.01R
WENATCHEE      CLEAR     74  46  36 E7        30.00R
ELLENSBURG     CLEAR     67  51  56 NW14      30.04R
YAKIMA         CLEAR     67  47  48 CALM      30.01R
$$

WAZ028-034-035-260600-
COLUMBIA BASIN

CITY           SKY/WX    TMP DP  RH WIND       PRES   REMARKS
EPHRATA        CLEAR     71  44  37 SW5       30.01R
MOSES LAKE     CLEAR     71  47  42 S5        30.01R
PASCO          CLEAR     66  54  65 CALM      29.98S
HERMISTON, OR  CLEAR     61  46  57 E6        29.99R
$$

WAZ036>038-260600-
NORTHEAST WASHINGTON

CITY           SKY/WX    TMP DP  RH WIND       PRES   REMARKS
SPOKANE GEIGER PTCLDY    67  37  33 S3        30.06R
SPOKANE FELTS  CLEAR     63  39  41 CALM      30.05R
FAIRCHILD AFB  CLEAR     65  40  40 SE2       30.07R
COEURDALENE,ID CLEAR     63  50  63 SE6       30.06R
DEER PARK      CLEAR     57  44  62 CALM      30.06R
$$

WAZ029>033-260600-
SOUTHEAST WASHINGTON

CITY           SKY/WX    TMP DP  RH WIND       PRES   REMARKS
PULLMAN        CLEAR     57  47  69 CALM      30.10R
LEWISTON, ID   LGT RAIN  71  41  33 SE5       30.03R
WALLA WALLA    CLEAR     68  39  34 E8        30.03R
PENDLETON, OR  CLEAR     70  33  25 CALM      30.03R
$$



USA.gov is the U.S. government's official web portal to all federal, state and local government web resources and services.